Location: *
(40.7765°S, 106.5327°E)
Time: 16:09:13
(UTC+00:00)

COSMOS 2406 - Pass Details

Date: 26 May 2022
Orbit: 843 x 864 km, 71.0° (Epoch: 04 July)

Event Time Altitude Azimuth Distance (km) Brightness Sun altitude
Rises 10:23:35 0° 350° (N) 3,403 6.8 -8.7°
Reaches altitude 10° 10:26:03 10° 353° (N) 2,472 6.0 -9.2°
Maximum altitude 10:31:37 59° 71° (ENE) 984 3.3 -10.2°
Drops below altitude 10° 10:37:13 10° 149° (SSE) 2,494 5.2 -11.2°
Enters shadow 10:38:21 - 151° (SSE) 2,917 5.6 -11.4°
